Flag for U.S.A. Weather past 2 weeks in Savannah, Georgia, U.S.A.

Now
80 °F

Scattered clouds.


Feels Like: 83 °F
Forecast: 72 / 83 °F
Wind: 13 mph from Southeast

Location: Hunter U. S. Army Airfield

Current Time: May 25, 2015 at 1:57:17 PM

Latest Report: May 25, 2015 at 12:58 PM


Visibility: 10 mi

Pressure: 30.26 "Hg

Humidity: 70%

Dew point: 69 °F

Location of SavannahLocation

Historic Weather in Savannah — Graph

°F

Savannah temperature yesterday

Maximum temperature yesterday: 83 °F (at 3:58 PM)
Minimum temperature yesterday: 73 °F (at 10:58 PM)
Average temperature yesterday: 78 °F

Past Weeks' High & Low Weather Summary

 TemperatureHumidityPressure
High93 °F (May 21, 4:58 PM)100% (May 11, 4:58 AM)30.35 "Hg (May 11, 4:58 AM)
Low61 °F (May 23, 3:58 AM)34% (May 21, 3:59 PM)29.83 "Hg (May 21, 5:58 PM)
Average76 °F76%30.13 "Hg
* Reported May 10 12:58 PM — May 25 12:00 Noon, Savannah, Weather by CustomWeather, © 2015

Note: Actual official high and low records may vary slightly from our data, if they occured in-between our weather recording intervals... More about our weather records

Advertising

Savannah weather history for previous 24 hours

 ConditionsComfort  
Time TempWeatherWind HumidityBarometerVisibility
12:00 PM
Mon, May 25
79 °FPassing clouds.12 mph74%30.27 "Hg10 mi
11:58 AM78 °FLight rain. Passing clouds.12 mph77%30.28 "Hg10 mi
10:58 AM80 °FPassing clouds.15 mph73%30.27 "Hg10 mi
9:58 AM78 °FPassing clouds.10 mph78%30.27 "Hg10 mi
8:58 AM77 °FPassing clouds.8 mph80%30.27 "Hg10 mi
7:58 AM76 °FPartly sunny.9 mph80%30.25 "Hg10 mi
6:58 AM75 °FOvercast.8 mph81%30.24 "Hg10 mi
5:58 AM75 °FOvercast.9 mph80%30.22 "Hg10 mi
4:58 AM75 °FOvercast.8 mph78%30.22 "Hg10 mi
3:58 AM75 °FPassing clouds.10 mph76%30.23 "Hg10 mi
2:58 AM76 °FPassing clouds.10 mph73%30.23 "Hg10 mi
1:58 AM76 °FPassing clouds.10 mph71%30.24 "Hg10 mi
12:58 AM75 °FMostly cloudy.10 mph75%30.25 "Hg10 mi
11:58 PM
Sun, May 24
75 °FOvercast.13 mph75%30.27 "Hg10 mi
10:58 PM73 °FClear.9 mph77%30.27 "Hg10 mi
9:58 PM74 °FClear.13 mph74%30.26 "Hg10 mi
8:58 PM75 °FScattered clouds.14 mph70%30.25 "Hg10 mi
7:58 PM76 °FPartly sunny.14 mph70%30.25 "Hg10 mi
6:58 PM77 °FPartly sunny.14 mph68%30.25 "Hg10 mi
5:58 PM78 °FPartly sunny.16 mph65%30.25 "Hg10 mi
4:58 PM80 °FPassing clouds.16 mph61%30.25 "Hg10 mi
3:58 PM83 °FScattered clouds.16 mph57%30.27 "Hg10 mi
2:58 PM82 °FSunny.17 mph55%30.30 "Hg10 mi
1:58 PM81 °FScattered clouds.12 mph55%30.31 "Hg10 mi
Weather by CustomWeather, © 2015

See weather overviewHow to use our weather pages